Retour au catalogue

STARLINK-34133

ActifCommunicationsVLEO
NORAD 64143·PAYLOAD·🇺🇸 United States

Lancé May 24, 2025 depuis Cape Canaveral Space Force Station

Loading…

Prochains Passages (prochaines 24 heures)

TLE

FraisSource: CelesTrak SupGP

Époque: Sep 14, 2026, 23:05 UTC

1 64143C 25111W   26257.96229167  .00047234  00000+0  17109-2 0  2578
2 64143  42.9998  88.6816 0001314 273.4020  76.9124 15.27552743    16

Suivez STARLINK-34133 en temps réel avec AllMySat

Download on the App Store